TimeEDT,TemperatureF,Dew PointF,Humidity,Sea Level PressureIn,VisibilityMPH,Wind Direction,Wind SpeedMPH,Gust SpeedMPH,PrecipitationIn,Events,Conditions,WindDirDegrees,DateUTC
12:15 AM,51.6,14.5,23,30.02,10.0,NW,6.9,-,N/A,,Clear,320,2013-03-20 04:15:00
12:35 AM,50.5,13.5,23,30.02,10.0,NNW,5.8,-,N/A,,Clear,330,2013-03-20 04:35:00
1:15 AM,50.0,10.8,21,30.03,10.0,NNW,6.9,-,N/A,,Clear,330,2013-03-20 05:15:00
1:35 AM,49.6,9.3,20,30.03,10.0,NNW,6.9,-,N/A,,Clear,330,2013-03-20 05:35:00
1:55 AM,49.1,9.1,20,30.04,10.0,NNW,4.6,-,N/A,,Clear,330,2013-03-20 05:55:00
2:15 AM,49.3,8.2,19,30.04,10.0,NNW,4.6,-,N/A,,Clear,330,2013-03-20 06:15:00
2:35 AM,48.7,8.4,20,30.04,10.0,NW,4.6,-,N/A,,Clear,320,2013-03-20 06:35:00
2:55 AM,47.7,9.9,22,30.04,10.0,NNW,4.6,-,N/A,,Scattered Clouds,340,2013-03-20 06:55:00
3:15 AM,47.1,9.1,21,30.04,10.0,NW,3.5,-,N/A,,Scattered Clouds,320,2013-03-20 07:15:00
3:35 AM,46.6,9.5,22,30.04,10.0,Calm,Calm,-,N/A,,Clear,0,2013-03-20 07:35:00
3:55 AM,39.9,20.8,47,30.03,10.0,Calm,Calm,-,N/A,,Clear,0,2013-03-20 07:55:00
4:15 AM,38.1,22.8,54,30.04,10.0,Calm,Calm,-,N/A,,Clear,0,2013-03-20 08:15:00
4:35 AM,37.9,20.8,50,30.03,10.0,Calm,Calm,-,N/A,,Clear,0,2013-03-20 08:35:00
4:55 AM,38.3,23.2,55,30.02,10.0,Calm,Calm,-,N/A,,Clear,0,2013-03-20 08:55:00
5:15 AM,37.0,26.6,66,30.02,10.0,Calm,Calm,-,N/A,,Scattered Clouds,0,2013-03-20 09:15:00
5:35 AM,36.0,25.9,67,30.03,10.0,Calm,Calm,-,N/A,,Clear,0,2013-03-20 09:35:00
5:55 AM,37.9,25.0,60,30.04,10.0,Calm,Calm,-,N/A,,Clear,0,2013-03-20 09:55:00
6:15 AM,37.2,27.0,66,30.04,10.0,Calm,Calm,-,N/A,,Clear,0,2013-03-20 10:15:00
6:35 AM,36.1,26.8,69,30.05,10.0,Calm,Calm,-,N/A,,Clear,0,2013-03-20 10:35:00
6:55 AM,36.0,27.9,72,30.06,10.0,Calm,Calm,-,N/A,,Clear,0,2013-03-20 10:55:00
7:35 AM,41.2,14.9,34,30.07,10.0,NW,3.5,-,N/A,,Clear,320,2013-03-20 11:35:00
7:55 AM,36.9,28.2,71,30.09,10.0,Calm,Calm,-,N/A,,Clear,0,2013-03-20 11:55:00
8:15 AM,37.2,30.4,76,30.08,10.0,Calm,Calm,-,N/A,,Scattered Clouds,0,2013-03-20 12:15:00
8:35 AM,38.7,30.4,72,30.09,10.0,Calm,Calm,-,N/A,,Scattered Clouds,0,2013-03-20 12:35:00
9:15 AM,44.4,21.2,40,30.12,10.0,Calm,Calm,-,N/A,,Scattered Clouds,0,2013-03-20 13:15:00
9:35 AM,46.4,14.4,28,30.12,10.0,NNE,5.8,-,N/A,,Scattered Clouds,20,2013-03-20 13:35:00
9:55 AM,46.4,13.3,26,30.12,10.0,NW,6.9,-,N/A,,Mostly Cloudy,320,2013-03-20 13:55:00
10:15 AM,47.5,13.5,26,30.13,10.0,NNW,8.1,-,N/A,,Overcast,330,2013-03-20 14:15:00
10:35 AM,46.8,10.0,23,30.13,10.0,NW,6.9,-,N/A,,Overcast,310,2013-03-20 14:35:00
10:55 AM,46.9,11.5,24,30.13,10.0,NW,5.8,-,N/A,,Overcast,310,2013-03-20 14:55:00
11:15 AM,47.7,13.5,25,30.12,10.0,NNW,6.9,-,N/A,,Overcast,340,2013-03-20 15:15:00
11:35 AM,47.8,12.9,25,30.11,10.0,NNW,3.5,-,N/A,,Overcast,340,2013-03-20 15:35:00
11:55 AM,48.0,12.7,24,30.10,10.0,NW,5.8,-,N/A,,Overcast,320,2013-03-20 15:55:00
12:15 PM,49.1,11.8,22,30.09,10.0,Calm,Calm,-,N/A,,Overcast,0,2013-03-20 16:15:00
12:35 PM,49.6,12.0,22,30.09,10.0,NW,4.6,-,N/A,,Overcast,310,2013-03-20 16:35:00
12:55 PM,50.9,12.7,22,30.08,10.0,NNW,3.5,-,N/A,,Overcast,330,2013-03-20 16:55:00
1:15 PM,50.7,11.3,21,30.06,10.0,WNW,4.6,-,N/A,,Overcast,290,2013-03-20 17:15:00
1:35 PM,52.7,13.3,21,30.05,10.0,NNW,5.8,-,N/A,,Mostly Cloudy,340,2013-03-20 17:35:00
1:55 PM,52.7,13.1,21,30.03,10.0,Calm,Calm,-,N/A,,Scattered Clouds,0,2013-03-20 17:55:00
2:15 PM,53.2,14.7,22,30.01,10.0,SW,6.9,-,N/A,,Scattered Clouds,230,2013-03-20 18:15:00
2:35 PM,54.0,14.5,21,30.00,10.0,SW,3.5,-,N/A,,Scattered Clouds,230,2013-03-20 18:35:00
2:55 PM,54.1,13.5,20,29.99,10.0,West,3.5,-,N/A,,Scattered Clouds,260,2013-03-20 18:55:00
3:15 PM,54.9,12.6,19,29.97,10.0,WNW,6.9,-,N/A,,Clear,290,2013-03-20 19:15:00
3:35 PM,55.0,14.9,21,29.95,10.0,WSW,10.4,-,N/A,,Clear,240,2013-03-20 19:35:00
4:15 PM,54.5,13.6,20,29.91,10.0,WNW,4.6,-,N/A,,Clear,290,2013-03-20 20:15:00
4:35 PM,55.4,13.5,19,29.90,10.0,SW,6.9,-,N/A,,Clear,230,2013-03-20 20:35:00
4:55 PM,55.4,13.8,19,29.89,10.0,SW,8.1,-,N/A,,Clear,220,2013-03-20 20:55:00
5:15 PM,55.9,14.5,20,29.88,10.0,South,4.6,-,N/A,,Clear,180,2013-03-20 21:15:00
5:35 PM,55.4,13.3,19,29.87,10.0,WSW,8.1,-,N/A,,Clear,250,2013-03-20 21:35:00
5:55 PM,55.6,15.1,20,29.87,10.0,SW,8.1,-,N/A,,Clear,230,2013-03-20 21:55:00
6:15 PM,54.7,13.3,19,29.88,10.0,WSW,6.9,-,N/A,,Clear,240,2013-03-20 22:15:00
6:35 PM,54.9,14.2,20,29.88,10.0,WSW,6.9,-,N/A,,Clear,240,2013-03-20 22:35:00
6:55 PM,54.1,16.7,23,29.88,10.0,SW,5.8,-,N/A,,Clear,220,2013-03-20 22:55:00
7:15 PM,52.9,18.7,26,29.87,10.0,SSW,5.8,-,N/A,,Clear,200,2013-03-20 23:15:00
7:35 PM,50.9,18.1,27,29.87,10.0,SW,5.8,-,N/A,,Clear,220,2013-03-20 23:35:00
7:55 PM,47.3,20.8,35,29.86,10.0,Calm,Calm,-,N/A,,Clear,0,2013-03-20 23:55:00
8:15 PM,44.8,24.1,44,29.86,10.0,Calm,Calm,-,N/A,,Clear,0,2013-03-21 00:15:00
8:35 PM,41.5,26.6,55,29.85,10.0,Calm,Calm,-,N/A,,Clear,0,2013-03-21 00:35:00
8:55 PM,40.8,26.2,56,29.85,10.0,Calm,Calm,-,N/A,,Clear,0,2013-03-21 00:55:00
9:15 PM,38.3,26.6,63,29.84,10.0,Calm,Calm,-,N/A,,Clear,0,2013-03-21 01:15:00
9:35 PM,37.6,26.6,65,29.84,10.0,South,3.5,-,N/A,,Clear,170,2013-03-21 01:35:00
9:55 PM,35.1,28.0,76,29.83,10.0,Calm,Calm,-,N/A,,Clear,0,2013-03-21 01:55:00
10:15 PM,37.6,25.3,61,29.83,10.0,Calm,Calm,-,N/A,,Clear,0,2013-03-21 02:15:00
10:35 PM,38.3,24.4,57,29.83,10.0,Calm,Calm,-,N/A,,Clear,0,2013-03-21 02:35:00
10:55 PM,36.3,25.9,66,29.82,10.0,Calm,Calm,-,N/A,,Clear,0,2013-03-21 02:55:00
11:15 PM,33.8,27.9,79,29.82,10.0,Calm,Calm,-,N/A,,Clear,0,2013-03-21 03:15:00
11:35 PM,32.7,27.0,79,29.80,10.0,Calm,Calm,-,N/A,,Clear,0,2013-03-21 03:35:00
11:55 PM,33.1,27.1,79,29.79,10.0,Calm,Calm,-,N/A,,Mostly Cloudy,0,2013-03-21 03:55:00